Location: Newark
(59.4564°N, 26.6917°E)
Time: 22:27:13
(UTC+00:00)

SR - All Passes

Search period start: 22 November 2019 00:00
Search period end: 02 December 2019 00:00
Orbit: 573 x 882 km, 66.7° (Epoch: 21 November)

Date Brightness Start Highest point End Pass type
(mag) Time Alt. Az. Time Alt. Az. Time Alt. Az.
22 Nov - 11:27:23 10° SSE 11:31:16 20° ESE 11:35:19 10° ENE daylight
22 Nov - 13:06:56 10° SSW 13:12:26 65° SE 13:18:18 10° NE daylight
22 Nov - 14:49:14 10° WSW 14:54:50 56° NNW 15:00:42 10° NE visible
22 Nov - 16:32:25 10° WNW 16:37:57 42° N 16:43:35 10° ENE visible
22 Nov - 18:15:14 10° NW 18:21:04 56° NNE 18:26:55 10° ESE visible
22 Nov - 19:57:34 10° NW 20:03:30 68° SW 20:09:19 10° SSE visible
22 Nov - 21:40:25 10° WNW 21:44:48 22° WSW 21:49:05 10° SSW visible
23 Nov - 10:40:08 10° ESE 10:42:12 12° ESE 10:44:19 10° E daylight
23 Nov - 12:17:42 10° SSW 12:22:56 44° ESE 12:28:30 10° NE daylight
23 Nov - 13:59:18 10° WSW 14:04:56 71° NNW 14:10:54 10° NE daylight
23 Nov - 15:42:22 10° W 15:47:53 43° N 15:53:34 10° ENE visible
23 Nov - 17:25:23 10° WNW 17:31:06 47° NNE 17:36:51 10° E visible
23 Nov - 19:07:50 10° NW 19:13:50 88° NE 19:19:45 10° SE visible
23 Nov - 20:50:19 10° WNW 20:55:32 33° WSW 21:00:39 10° S visible
24 Nov - 11:28:51 10° S 11:33:35 30° ESE 11:38:33 10° ENE daylight
24 Nov - 13:09:32 10° SW 13:15:10 88° SE 13:21:08 10° NE daylight
24 Nov - 14:52:17 10° W 14:57:51 48° NNW 15:03:37 10° ENE visible
24 Nov - 16:35:28 10° WNW 16:41:04 43° N 16:46:44 10° E visible
24 Nov - 18:18:06 10° NW 18:24:02 68° NNE 18:29:56 10° ESE visible
24 Nov - 20:00:26 10° NW 20:06:08 49° SW 20:11:43 10° SSE visible
24 Nov - 21:44:05 10° WNW 21:47:01 14° WSW 21:49:56 10° SW visible
25 Nov - 10:40:34 10° SSE 10:44:22 19° ESE 10:48:21 10° ENE daylight
25 Nov - 12:20:01 10° SSW 12:25:31 63° SE 12:31:23 10° NE daylight
25 Nov - 14:02:15 10° WSW 14:07:53 57° NNW 14:13:46 10° NE daylight
25 Nov - 15:45:27 10° WNW 15:51:00 42° N 15:56:39 10° ENE visible
25 Nov - 17:28:18 10° NW 17:34:07 55° NNE 17:39:57 10° ESE visible
25 Nov - 19:10:39 10° NW 19:16:35 70° SW 19:22:24 10° SE visible
25 Nov - 20:53:27 10° WNW 20:57:55 22° WSW 21:02:17 10° SSW visible
26 Nov - 09:53:31 10° ESE 09:55:20 12° E 09:57:11 10° E daylight
26 Nov - 11:30:48 10° SSW 11:36:02 43° ESE 11:41:34 10° NE daylight
26 Nov - 13:12:19 10° WSW 13:18:00 72° NW 13:23:59 10° NE daylight
26 Nov - 14:55:23 10° W 15:00:55 44° N 15:06:37 10° ENE visible
26 Nov - 16:38:26 10° WNW 16:44:08 47° NNE 16:49:53 10° E visible
26 Nov - 18:20:54 10° NW 18:26:54 86° NE 18:32:48 10° SE visible
26 Nov - 20:03:22 10° WNW 20:08:39 34° WSW 20:13:48 10° S visible
27 Nov - 10:42:00 10° S 10:46:41 29° ESE 10:51:37 10° ENE daylight
27 Nov - 12:22:35 10° SW 12:28:14 86° SE 12:34:13 10° NE daylight
27 Nov - 14:05:18 10° W 14:10:54 49° NNW 14:16:41 10° ENE visible
27 Nov - 15:48:30 10° WNW 15:54:06 43° N 15:59:46 10° ENE visible
27 Nov - 17:31:09 10° NW 17:37:06 67° NNE 17:42:59 10° ESE visible
27 Nov - 19:13:30 10° NW 19:19:14 50° SW 19:24:50 10° SSE visible
27 Nov - 20:57:02 10° WNW 21:00:09 15° WSW 21:03:14 10° SW visible
28 Nov - 09:53:46 10° SSE 09:57:30 18° ESE 10:01:22 10° ENE daylight
28 Nov - 11:33:05 10° SSW 11:38:37 61° SE 11:44:27 10° NE daylight
28 Nov - 13:15:16 10° WSW 13:20:56 58° NNW 13:26:50 10° NE daylight
28 Nov - 14:58:29 10° WNW 15:04:02 42° N 15:09:42 10° ENE visible
28 Nov - 16:41:21 10° NW 16:47:11 54° NNE 16:52:59 10° E visible
28 Nov - 18:23:43 10° NW 18:29:40 72° SW 18:35:29 10° SE visible
28 Nov - 20:06:29 10° WNW 20:11:02 23° WSW 20:15:28 10° SSW visible
29 Nov - 09:06:56 10° ESE 09:08:28 11° E 09:10:01 10° E daylight
29 Nov - 10:43:55 10° S 10:49:07 42° ESE 10:54:38 10° NE daylight
29 Nov - 12:25:22 10° WSW 12:31:04 74° NW 12:37:03 10° NE daylight
29 Nov - 14:08:24 10° W 14:13:58 44° N 14:19:41 10° ENE visible
29 Nov - 15:51:29 10° WNW 15:57:12 46° NNE 16:02:55 10° E visible
29 Nov - 17:33:58 10° NW 17:39:59 84° NE 17:45:52 10° SE visible
29 Nov - 19:16:26 10° NW 19:21:45 35° WSW 19:26:57 10° S visible
30 Nov - 09:55:08 10° S 09:59:48 28° ESE 10:04:40 10° ENE daylight
30 Nov - 11:35:38 10° SW 11:41:19 84° SE 11:47:18 10° NE daylight
30 Nov - 13:18:19 10° W 13:23:57 49° NNW 13:29:45 10° ENE daylight
30 Nov - 15:01:32 10° WNW 15:07:09 43° N 15:12:48 10° ENE visible
30 Nov - 16:44:13 10° NW 16:50:09 65° NNE 16:56:01 10° ESE visible
30 Nov - 18:26:33 10° NW 18:32:20 52° SW 18:37:56 10° SSE visible
30 Nov - 20:10:00 10° WNW 20:13:17 15° WSW 20:16:30 10° SW visible
01 Dec - 09:06:59 10° SSE 09:10:37 18° ESE 09:14:22 10° ENE daylight
01 Dec - 10:46:10 10° SSW 10:51:41 60° SE 10:57:31 10° NE daylight
01 Dec - 12:28:18 10° WSW 12:33:59 59° NNW 12:39:55 10° NE daylight
01 Dec - 14:11:30 10° WNW 14:17:04 42° N 14:22:44 10° ENE visible
01 Dec - 15:54:24 10° NW 16:00:14 53° NNE 16:06:01 10° E visible
01 Dec - 17:36:47 10° NW 17:42:45 74° SW 17:48:33 10° SE visible
01 Dec - 19:19:31 10° WNW 19:24:09 24° WSW 19:28:40 10° SSW visible
